Marco Island Airport, FL

9:45 AM EDT on March 27, 2017 (GMT -0400)
Marco Island

Weather History for KMKY - May, 2013

Change the Weather History Date:

Wednesday, May 29, 2013

  Actual Average (KAPF) Record (KAPF)
Temperature  
Mean Temperature 76 °F -  
Max Temperature 80 °F 89 °F 96 °F (2011)
Min Temperature 71 °F 69 °F 62 °F (1975)
Cooling Degree Days 10    
Growing Degree Days 26 (Base 50)    
Moisture  
Dew Point 62 °F    
Average Humidity 67    
Maximum Humidity 73    
Minimum Humidity 54    
Precipitation  
Precipitation 0.34 in - - ()
Sea Level Pressure  
Sea Level Pressure 30.04 in    
Wind  
Wind Speed 9 mph ()    
Max Wind Speed 18 mph    
Max Gust Speed 28 mph    
Visibility 9.6 miles    
Events      
Averages and records for this station are not official NWS values.
T = Trace of Precipitation, MM = Missing Value Source: Averaged Metar Reports

Daily Weather History Graph

Daily Weather History Graph

Search for Another Location

Airport or City:

Trip Planner

Search our weather history database for the weather conditions in past years. The results will help you decide how hot, cold, wet, or windy it might be!

Date:

Astronomy

May. 29, 2013 Rise Set
Actual Time 6:35 AM EDT 8:13 PM EDT
Civil Twilight 6:09 AM EDT 8:38 PM EDT
Nautical Twilight 5:38 AM EDT 9:09 PM EDT
Astronomical Twilight 5:06 AM EDT 9:41 PM EDT
Moon No Moon Rise 11:17 AM EDT (5/29)
Length of Visible Light 14h 29m
Length of Day
13h 37m
Waning Gibbous, 73% of the Moon is Illuminated
May 29
Waning Gibbous
May 31
Last Quarter
Jun 8
New
Jun 16
First Quarter
Jun 23
Full

Hourly Weather History & Observations

Time (EDT) Temp. Heat Index Dew Point Humidity Pressure Visibility Wind Dir Wind Speed Gust Speed Precip Events Conditions
12:15 AM 71.6 °F - 60.8 °F 69% 30.07 in 10.0 mi NE 6.9 mph - N/A   Clear
12:35 AM 71.6 °F - 60.8 °F 69% 30.07 in 10.0 mi ENE 5.8 mph - N/A   Clear
12:55 AM 71.6 °F - 60.8 °F 69% 30.06 in 10.0 mi NE 8.1 mph - N/A   Clear
1:15 AM 71.6 °F - 62.6 °F 73% 30.06 in 10.0 mi NE 8.1 mph - N/A   Clear
1:35 AM 71.6 °F - 62.6 °F 73% 30.06 in 10.0 mi NE 6.9 mph - N/A   Clear
1:55 AM 71.6 °F - 60.8 °F 69% 30.05 in 10.0 mi ENE 8.1 mph - N/A   Clear
2:15 AM 71.6 °F - 60.8 °F 69% 30.04 in 10.0 mi ENE 8.1 mph - N/A   Clear
2:35 AM 71.6 °F - 60.8 °F 69% 30.04 in 10.0 mi ENE 6.9 mph - N/A   Clear
2:55 AM 71.6 °F - 60.8 °F 69% 30.04 in 10.0 mi NE 8.1 mph - N/A   Clear
3:15 AM 71.6 °F - 60.8 °F 69% 30.04 in 10.0 mi ENE 5.8 mph - N/A   Clear
3:35 AM 71.6 °F - 60.8 °F 69% 30.02 in 10.0 mi ENE 5.8 mph - N/A   Clear
3:55 AM 71.6 °F - 60.8 °F 69% 30.02 in 10.0 mi NE 6.9 mph - N/A   Clear
4:15 AM 71.6 °F - 60.8 °F 69% 30.01 in 10.0 mi ENE 6.9 mph - N/A   Clear
4:35 AM 71.6 °F - 60.8 °F 69% 30.01 in 10.0 mi NE 8.1 mph - N/A   Clear
4:55 AM 71.6 °F - 60.8 °F 69% 30.01 in 10.0 mi NE 8.1 mph - N/A   Clear
5:15 AM 71.6 °F - 60.8 °F 69% 30.01 in 10.0 mi NE 5.8 mph - N/A   Clear
5:35 AM 71.6 °F - 60.8 °F 69% 30.02 in 10.0 mi ENE 5.8 mph - N/A   Clear
5:55 AM 71.6 °F - 60.8 °F 69% 30.02 in 10.0 mi ENE 5.8 mph - N/A   Clear
6:15 AM 71.6 °F - 60.8 °F 69% 30.02 in 10.0 mi ENE 6.9 mph - N/A   Clear
6:35 AM 71.6 °F - 60.8 °F 69% 30.02 in 10.0 mi ENE 8.1 mph - N/A   Clear
6:55 AM 71.6 °F - 60.8 °F 69% 30.03 in 10.0 mi ENE 6.9 mph - N/A   Scattered Clouds
7:15 AM 71.6 °F - 60.8 °F 69% 30.04 in 10.0 mi East 9.2 mph - N/A   Partly Cloudy
7:35 AM 71.6 °F - 60.8 °F 69% 30.05 in 10.0 mi East 9.2 mph - N/A   Clear
7:55 AM 73.4 °F - 60.8 °F 65% 30.05 in 10.0 mi East 10.4 mph - N/A   Clear
8:15 AM 73.4 °F - 62.6 °F 69% 30.05 in 10.0 mi East 8.1 mph - N/A   Clear
8:35 AM 75.2 °F - 62.6 °F 65% 30.05 in 10.0 mi East 13.8 mph 17.3 mph N/A   Clear
8:55 AM 77.0 °F - 62.6 °F 61% 30.06 in 10.0 mi East 15.0 mph 20.7 mph N/A   Clear
9:15 AM 78.8 °F - 62.6 °F 57% 30.06 in 10.0 mi East 16.1 mph 24.2 mph N/A   Mostly Cloudy
9:35 AM 78.8 °F - 62.6 °F 57% 30.06 in 10.0 mi East 17.3 mph 24.2 mph N/A   Overcast
9:55 AM 80.6 °F 82.3 °F 64.4 °F 58% 30.06 in 10.0 mi East 16.1 mph 23.0 mph N/A   Mostly Cloudy
10:15 AM 80.6 °F 81.8 °F 62.6 °F 54% 30.06 in 10.0 mi East 16.1 mph 26.5 mph N/A   Mostly Cloudy
10:35 AM 78.8 °F - 62.6 °F 57% 30.07 in 10.0 mi East 15.0 mph 26.5 mph N/A   Mostly Cloudy
10:55 AM 77.0 °F - 62.6 °F 61% 30.08 in 9.0 mi East 18.4 mph 24.2 mph N/A   Overcast
11:15 AM 73.4 °F - 62.6 °F 69% 30.09 in 8.0 mi East 11.5 mph 18.4 mph 0.01 in   Overcast
11:35 AM 75.2 °F - 62.6 °F 65% 30.08 in 6.0 mi ENE 13.8 mph 20.7 mph 0.02 in   Mostly Cloudy
11:55 AM 73.4 °F - 62.6 °F 69% 30.08 in 8.0 mi East 13.8 mph 20.7 mph 0.04 in   Mostly Cloudy
12:15 PM 73.4 °F - 62.6 °F 69% 30.08 in 9.0 mi East 17.3 mph - 0.02 in   Mostly Cloudy
12:35 PM 73.4 °F - 62.6 °F 69% 30.08 in 10.0 mi East 13.8 mph 23.0 mph 0.05 in   Mostly Cloudy
12:55 PM 75.2 °F - 62.6 °F 65% 30.08 in 10.0 mi East 15.0 mph 23.0 mph 0.05 in   Overcast
1:15 PM 73.4 °F - 62.6 °F 69% 30.08 in 10.0 mi East 16.1 mph 27.6 mph 0.01 in   Overcast
1:35 PM 73.4 °F - 62.6 °F 69% 30.07 in 10.0 mi ESE 11.5 mph 18.4 mph 0.08 in   Mostly Cloudy
1:55 PM 75.2 °F - 64.4 °F 69% 30.06 in 10.0 mi ESE 11.5 mph 20.7 mph 0.09 in   Overcast
2:15 PM 75.2 °F - 64.4 °F 69% 30.05 in 10.0 mi East 12.7 mph - 0.01 in   Overcast
2:35 PM 75.2 °F - 64.4 °F 69% 30.04 in 10.0 mi East 13.8 mph 20.7 mph 0.01 in   Mostly Cloudy
2:55 PM 77.0 °F - 64.4 °F 65% 30.04 in 10.0 mi East 11.5 mph 18.4 mph 0.01 in   Mostly Cloudy
3:15 PM 78.8 °F - 64.4 °F 61% 30.04 in 10.0 mi East 12.7 mph 18.4 mph N/A   Mostly Cloudy
3:35 PM 78.8 °F - 64.4 °F 61% 30.03 in 10.0 mi East 15.0 mph 19.6 mph N/A   Overcast
3:55 PM 78.8 °F - 64.4 °F 61% 30.03 in 10.0 mi East 12.7 mph 17.3 mph N/A   Mostly Cloudy
4:15 PM 78.8 °F - 64.4 °F 61% 30.02 in 10.0 mi ENE 11.5 mph 17.3 mph N/A   Overcast
4:35 PM 77.0 °F - 64.4 °F 65% 30.02 in 7.0 mi East 9.2 mph - 0.01 in   Mostly Cloudy
4:55 PM 75.2 °F - 64.4 °F 69% 30.01 in 5.0 mi East 8.1 mph - 0.05 in   Overcast
5:15 PM 75.2 °F - 64.4 °F 69% 30.02 in 3.0 mi ESE 13.8 mph 27.6 mph 0.07 in   Mostly Cloudy
5:35 PM 73.4 °F - 64.4 °F 73% 30.02 in 9.0 mi East 13.8 mph 19.6 mph 0.10 in   Mostly Cloudy
5:55 PM 73.4 °F - 64.4 °F 73% 30.01 in 10.0 mi East 9.2 mph - 0.10 in   Overcast
6:15 PM 73.4 °F - 62.6 °F 69% 30.01 in 10.0 mi East 10.4 mph - N/A   Mostly Cloudy
6:35 PM 75.2 °F - 62.6 °F 65% 30.01 in 10.0 mi East 13.8 mph 21.9 mph N/A   Mostly Cloudy
6:55 PM 75.2 °F - 62.6 °F 65% 30.01 in 10.0 mi East 18.4 mph 24.2 mph N/A   Overcast
7:15 PM 73.4 °F - 62.6 °F 69% 30.01 in 10.0 mi East 18.4 mph 23.0 mph N/A   Mostly Cloudy
7:35 PM 73.4 °F - 62.6 °F 69% 30.01 in 10.0 mi East 11.5 mph - N/A   Mostly Cloudy
7:55 PM 73.4 °F - 62.6 °F 69% 30.01 in 10.0 mi East 10.4 mph 20.7 mph N/A   Overcast
8:15 PM 73.4 °F - 60.8 °F 65% 30.02 in 10.0 mi East 8.1 mph - N/A   Overcast
8:35 PM 73.4 °F - 60.8 °F 65% 30.02 in 10.0 mi East 9.2 mph - N/A   Overcast
8:55 PM 73.4 °F - 60.8 °F 65% 30.02 in 10.0 mi ENE 6.9 mph - N/A   Overcast
9:15 PM 71.6 °F - 60.8 °F 69% 30.02 in 10.0 mi East 6.9 mph - N/A   Scattered Clouds
9:35 PM 71.6 °F - 60.8 °F 69% 30.03 in 10.0 mi East 8.1 mph - N/A   Mostly Cloudy
9:55 PM 71.6 °F - 60.8 °F 69% 30.03 in 10.0 mi East 8.1 mph - N/A   Overcast
10:15 PM 71.6 °F - 60.8 °F 69% 30.03 in 10.0 mi East 9.2 mph - N/A   Overcast
10:35 PM 71.6 °F - 60.8 °F 69% 30.04 in 10.0 mi ENE 8.1 mph - N/A   Overcast
10:55 PM 71.6 °F - 60.8 °F 69% 30.04 in 10.0 mi East 6.9 mph - N/A   Mostly Cloudy
11:15 PM 71.6 °F - 60.8 °F 69% 30.04 in 10.0 mi ENE 6.9 mph - N/A   Partly Cloudy
11:35 PM 71.6 °F - 60.8 °F 69% 30.04 in 10.0 mi East 5.8 mph - N/A   Clear
11:55 PM 71.6 °F - 60.8 °F 69% 30.03 in 10.0 mi East 6.9 mph - N/A   Mostly Cloudy